Location: Newark
(22.0000°S, 43.0000°W)
Time: 21:58:23
(UTC+00:00)

N. Korean satellite - Visible Passes

Search period start: 20 September 2020 00:00
Search period end: 30 September 2020 00:00
Orbit: 455 x 503 km, 97.2° (Epoch: 20 September)

Date Brightness Start Highest point End Pass type
(mag) Time Alt. Az. Time Alt. Az. Time Alt. Az.
20 Sep 6.5 07:49:42 10° NNE 07:53:14 84° ESE 07:56:45 10° S visible
21 Sep 8.6 07:24:12 10° NE 07:27:18 30° ESE 07:30:25 10° SSE visible
22 Sep 10.0 06:59:55 10° E 07:01:28 12° ESE 07:02:59 10° SE visible
23 Sep 6.6 08:05:06 10° N 08:08:31 51° W 08:11:55 10° SSW visible
23 Sep 10.5 21:16:30 10° WSW 21:17:14 11° WSW 21:17:58 10° W visible
24 Sep 7.3 07:39:08 10° NNE 07:42:33 54° ESE 07:45:58 10° S visible
25 Sep 9.3 07:13:59 10° NE 07:16:39 21° ESE 07:19:18 10° SSE visible
27 Sep 6.4 07:54:19 10° N 07:57:47 80° W 08:01:16 10° SSW visible
28 Sep 8.2 07:28:39 10° NE 07:31:50 35° ESE 07:35:02 10° S visible
29 Sep 9.9 07:04:01 10° ENE 07:05:58 14° ESE 07:07:54 10° SE visible
